KE5VT Weather Reports


time (UTC)temp
F
wind
direction
speed
knots
gust
knots
rain 1hr
in
rain 24hr
in
rain mn
in
humidity
%
barometer
mb
20260506001835 74 147 0.0 0.0 0.00 0.00 0.00 45 1009.9
20260506001333 74 147 0.0 0.0 0.00 0.00 0.00 44 1009.9
20260506000830 74 127 0.0 0.0 0.00 0.00 0.00 44 1009.9
20260506000329 75 139 0.0 0.0 0.00 0.00 0.00 44 1010.0
20260505235824 75 139 0.0 0.0 0.00 0.00 0.00 42 1009.9
20260505235322 75 147 0.0 0.0 0.00 0.00 0.00 42 1009.8
20260505234818 76 128 0.0 0.0 0.00 0.00 0.00 42 1010.0
20260505234316 76 115 0.0 0.0 0.00 0.00 0.00 41 1009.8
20260505233813 76 168 0.0 0.9 0.00 0.00 0.00 40 1010.0
20260505233311 76 151 0.0 0.0 0.00 0.00 0.00 41 1009.9
20260505232808 76 151 0.0 0.0 0.00 0.00 0.00 41 1009.9
20260505232306 77 143 0.0 0.0 0.00 0.00 0.00 40 1009.8
20260505231801 77 291 1.7 2.6 0.00 0.00 0.00 40 1010.0
20260505231300 77 177 0.0 0.9 0.00 0.00 0.00 39 1010.0
20260505230758 77 281 4.3 6.1 0.00 0.00 0.00 39 1009.9
20260505230255 77 161 0.0 0.0 0.00 0.00 0.00 39 1010.0
20260505225751 77 195 0.0 0.0 0.00 0.00 0.00 39 1010.0
20260505225249 77 138 0.0 0.0 0.00 0.00 0.00 39 1010.0
20260505224743 79 226 0.0 0.0 0.00 0.00 0.00 38 1009.8
20260505224241 79 165 0.0 0.9 0.00 0.00 0.00 37 1009.9
20260505223739 80 177 0.0 0.9 0.00 0.00 0.00 36 1009.8
20260505223235 80 183 0.0 1.7 0.00 0.00 0.00 36 1010.0
20260505222731 79 180 0.0 0.0 0.00 0.00 0.00 36 1009.8
20260505222227 79 207 0.0 0.9 0.00 0.00 0.00 37 1010.1
20260505221725 81 136 0.9 3.5 0.00 0.00 0.00 35 1009.9
20260505221221 80 146 0.0 0.0 0.00 0.00 0.00 36 1010.2
20260505220718 81 209 2.6 3.5 0.00 0.00 0.00 35 1010.0
20260505220216 80 157 1.7 1.7 0.00 0.00 0.00 36 1010.0
20260505215714 81 139 0.0 0.9 0.00 0.00 0.00 36 1010.2
20260505215211 80 339 0.0 0.0 0.00 0.00 0.00 37 1010.2
20260505214709 78 145 0.0 0.0 0.00 0.00 0.00 38 1010.1
20260505214206 78 129 0.9 1.7 0.00 0.00 0.00 37 1010.0
20260505213703 79 151 0.0 0.0 0.00 0.00 0.00 37 1010.1
20260505213201 79 145 3.5 5.2 0.00 0.00 0.00 37 1010.3
20260505212656 78 143 0.0 0.9 0.00 0.00 0.00 39 1010.2
20260505212154 79 199 0.0 0.0 0.00 0.00 0.00 39 1010.3
20260505211650 80 233 2.6 5.2 0.00 0.00 0.00 38 1010.3
20260505211148 79 240 2.6 3.5 0.00 0.00 0.00 37 1010.2
20260505210644 78 126 1.7 1.7 0.00 0.00 0.00 39 1010.3
20260505210141 78 133 0.9 1.7 0.00 0.00 0.00 38 1010.6
20260505205638 79 237 2.6 5.2 0.00 0.00 0.00 39 1010.4
20260505205137 79 276 4.3 6.1 0.00 0.00 0.00 38 1010.4
20260505204633 78 220 2.6 3.5 0.00 0.00 0.00 39 1010.6
20260505204131 78 244 4.3 6.1 0.00 0.00 0.00 39 1010.7
20260505203627 78 232 1.7 1.7 0.00 0.00 0.00 39 1010.6
20260505203125 78 135 0.0 0.0 0.00 0.00 0.00 40 1010.7
20260505202620 79 237 5.2 7.8 0.00 0.00 0.00 39 1010.7
20260505202116 80 171 0.0 0.0 0.00 0.00 0.00 40 1010.6
20260505201613 79 131 0.0 0.0 0.00 0.00 0.00 39 1010.8
20260505201111 79 242 0.0 0.0 0.00 0.00 0.00 39 1010.8
20260505200609 79 124 2.6 3.5 0.00 0.00 0.00 38 1011.0
20260505200105 79 167 0.0 0.0 0.00 0.00 0.00 39 1010.7
20260505195601 79 255 1.7 1.7 0.00 0.00 0.00 39 1010.8
20260505195059 78 166 1.7 1.7 0.00 0.00 0.00 38 1010.9
20260505194556 78 85 1.7 2.6 0.00 0.00 0.00 40 1011.0
20260505194051 78 268 9.6 11.3 0.00 0.00 0.00 39 1011.1
20260505193549 79 201 5.2 7.8 0.00 0.00 0.00 39 1011.2
20260505193046 77 175 0.0 0.0 0.00 0.00 0.00 41 1011.5
20260505192545 78 174 0.9 1.7 0.00 0.00 0.00 40 1011.4
20260505192042 79 313 2.6 3.5 0.00 0.00 0.00 39 1011.3
20260505191540 78 158 1.7 1.7 0.00 0.00 0.00 40 1011.5
20260505191038 79 144 2.6 3.5 0.00 0.00 0.00 38 1011.5
20260505190532 79 33 0.0 0.9 0.00 0.00 0.00 39 1011.7
20260505190028 80 218 0.0 1.7 0.00 0.00 0.00 38 1011.6
20260505185525 79 251 2.6 5.2 0.00 0.00 0.00 38 1011.6
20260505185022 79 181 1.7 3.5 0.00 0.00 0.00 38 1011.9
20260505184519 78 226 4.3 6.1 0.00 0.00 0.00 40 1011.9
20260505184015 79 249 0.0 0.9 0.00 0.00 0.00 38 1012.0
20260505183512 79 350 2.6 3.5 0.00 0.00 0.00 38 1012.1
20260505183009 78 70 1.7 2.6 0.00 0.00 0.00 40 1012.2
20260505182506 77 230 4.3 6.1 0.00 0.00 0.00 40 1012.1
20260505182002 79 305 0.9 1.7 0.00 0.00 0.00 38 1012.3
20260505181459 79 305 0.9 1.7 0.00 0.00 0.00 38 1012.3
20260505180956 78 144 0.0 0.0 0.00 0.00 0.00 39 1012.3
20260505180452 78 196 0.9 0.9 0.00 0.00 0.00 39 1012.4
20260505175949 78 137 1.7 2.6 0.00 0.00 0.00 38 1012.2
20260505175445 79 199 0.9 1.7 0.00 0.00 0.00 41 1012.6
20260505174942 78 115 0.0 0.0 0.00 0.00 0.00 41 1012.5
20260505174439 79 266 7.8 8.7 0.00 0.00 0.00 38 1012.5
20260505173935 78 158 0.9 1.7 0.00 0.00 0.00 39 1012.4
20260505173432 78 141 0.0 0.9 0.00 0.00 0.00 42 1012.6
20260505172929 77 292 4.3 5.2 0.00 0.00 0.00 41 1012.5
20260505172428 76 198 5.2 7.8 0.00 0.00 0.00 43 1012.3
20260505171926 77 263 2.6 3.5 0.00 0.00 0.00 41 1012.3
20260505171424 78 249 3.5 5.2 0.00 0.00 0.00 42 1012.4
20260505170920 75 230 1.7 1.7 0.00 0.00 0.00 43 1012.4
20260505170417 75 258 2.6 3.5 0.00 0.00 0.00 45 1012.5
20260505165912 76 293 6.1 7.0 0.00 0.00 0.00 43 1012.7
20260505165408 79 243 2.6 3.5 0.00 0.00 0.00 42 1012.6
20260505164904 78 296 0.0 0.0 0.00 0.00 0.00 39 1012.6
20260505164401 77 271 4.3 6.1 0.00 0.00 0.00 42 1012.8
20260505163859 78 277 3.5 6.1 0.00 0.00 0.00 41 1012.8
20260505163358 76 278 1.7 1.7 0.00 0.00 0.00 43 1012.8
20260505162856 75 250 0.9 0.9 0.00 0.00 0.00 46 1012.9
20260505162351 75 281 5.2 7.0 0.00 0.00 0.00 47 1013.1
20260505161849 73 132 0.0 0.0 0.00 0.00 0.00 49 1013.1
20260505161345 73 239 2.6 2.6 0.00 0.00 0.00 51 1013.5
20260505160843 74 178 0.0 0.0 0.00 0.00 0.00 53 1013.2
20260505160341 74 261 3.5 5.2 0.00 0.00 0.00 54 1013.2
20260505153320 71 250 1.7 2.6 0.00 0.00 0.00 62 1013.4
20260505152817 70 16 0.0 0.0 0.00 0.00 0.00 62 1013.6
20260505152314 70 284 6.1 7.8 0.00 0.00 0.00 60 1013.6
20260505151814 70 295 2.6 2.6 0.00 0.00 0.00 64 1013.6
20260505151311 70 252 0.0 0.9 0.00 0.00 0.00 65 1013.8
20260505150808 70 198 0.0 0.0 0.00 0.00 0.00 65 1013.5
20260505150305 69 216 1.7 3.5 0.00 0.00 0.00 65 1013.6
20260505140235 65 270 3.5 5.2 0.00 0.00 0.00 75 1013.4
20260505130159 61 292 2.6 2.6 0.00 0.00 0.00 80 1013.5
20260505124648 60 158 0.0 0.0 0.00 0.00 0.00 80 1013.3
20260505124145 60 236 1.7 2.6 0.00 0.00 0.00 81 1013.4
20260505123641 59 207 0.0 0.0 0.00 0.00 0.00 82 1013.3
20260505123138 59 267 3.5 3.5 0.00 0.00 0.00 82 1013.4
20260505122634 59 209 1.7 2.6 0.00 0.00 0.00 82 1013.5
20260505122132 58 170 0.0 0.0 0.00 0.00 0.00 82 1013.4
20260505121628 58 277 0.0 0.0 0.00 0.00 0.00 83 1013.5
20260505121125 58 320 0.0 0.0 0.00 0.00 0.00 83 1013.3
20260505120622 57 161 0.0 0.0 0.00 0.00 0.00 84 1013.1
20260505120118 57 127 0.0 0.0 0.00 0.00 0.00 85 1013.3
20260505115618 57 166 0.0 0.0 0.00 0.00 0.00 85 1013.1
20260505115115 57 143 0.0 0.0 0.00 0.00 0.00 86 1013.0
20260505114612 56 314 0.0 0.0 0.00 0.00 0.00 86 1013.1
20260505114109 56 314 0.0 0.0 0.00 0.00 0.00 86 1013.0
20260505113605 56 314 0.0 0.0 0.00 0.00 0.00 87 1012.9
20260505113102 55 314 0.0 0.0 0.00 0.00 0.00 87 1012.8
20260505112558 55 314 0.0 0.0 0.00 0.00 0.00 87 1012.6
20260505112056 55 314 0.0 0.0 0.00 0.00 0.00 87 1012.7
20260505111550 55 314 0.0 0.0 0.00 0.00 0.00 88 1012.7
20260505111046 55 314 0.0 0.0 0.00 0.00 0.00 88 1012.8
20260505110543 54 314 0.0 0.0 0.00 0.00 0.00 88 1012.7
20260505102015 55 313 0.0 0.0 0.00 0.00 0.00 86 1012.6
20260505101514 55 313 0.0 0.0 0.00 0.00 0.00 86 1012.6
20260505101010 55 249 0.0 0.0 0.00 0.00 0.00 85 1012.3
20260505100507 55 194 0.0 0.0 0.00 0.00 0.00 85 1012.4
20260505100003 55 205 0.0 0.0 0.00 0.00 0.00 85 1012.3
20260505095459 55 287 0.0 0.0 0.00 0.00 0.00 84 1012.2
20260505094956 56 287 0.0 0.0 0.00 0.00 0.00 84 1012.2
20260505094453 56 288 0.0 0.9 0.00 0.00 0.00 83 1012.1
20260505093949 56 289 0.0 0.0 0.00 0.00 0.00 83 1011.9
20260505093446 56 152 0.0 0.0 0.00 0.00 0.00 82 1011.9
20260505092943 56 140 0.0 0.0 0.00 0.00 0.00 82 1011.9
20260505092440 56 150 0.0 0.0 0.00 0.00 0.00 82 1011.7
20260505091938 57 128 0.0 0.0 0.00 0.00 0.00 81 1011.8
20260505091435 57 284 0.9 1.7 0.00 0.00 0.00 81 1012.0
20260505090933 57 249 0.9 1.7 0.00 0.00 0.00 80 1011.7
20260505090431 57 117 0.0 0.0 0.00 0.00 0.00 80 1011.6
20260505085928 57 149 0.0 0.0 0.00 0.00 0.00 80 1011.8
20260505085426 57 133 0.0 0.0 0.00 0.00 0.00 79 1011.7
20260505084924 57 62 0.0 0.9 0.00 0.00 0.00 79 1011.8
20260505084422 57 195 0.0 0.9 0.00 0.00 0.00 79 1011.6
20260505083920 57 150 0.0 0.0 0.00 0.00 0.00 78 1011.7
20260505083417 57 144 0.0 0.0 0.00 0.00 0.00 78 1011.6
20260505082913 57 274 0.0 0.0 0.00 0.00 0.00 78 1011.5
20260505082409 58 170 0.0 0.0 0.00 0.00 0.00 77 1011.7
20260505081906 58 278 0.0 0.0 0.00 0.00 0.00 77 1011.6
20260505081403 58 261 0.9 1.7 0.00 0.00 0.00 77 1011.6
20260505080859 58 156 0.0 0.0 0.00 0.00 0.00 77 1011.7
20260505080355 58 255 0.0 0.0 0.00 0.00 0.00 76 1011.6
20260505075851 58 206 0.0 0.0 0.00 0.00 0.00 76 1011.7
20260505075348 58 190 0.0 0.0 0.00 0.00 0.00 76 1011.6
20260505074845 58 170 0.0 0.0 0.00 0.00 0.00 76 1011.6
20260505074342 58 224 0.0 0.0 0.00 0.00 0.00 76 1011.7
20260505073840 58 130 0.0 0.0 0.00 0.00 0.00 75 1011.5
20260505073338 58 147 0.0 0.0 0.00 0.00 0.00 75 1011.5
20260505072834 58 133 0.0 0.0 0.00 0.00 0.00 74 1011.7
20260505072330 58 282 0.0 0.0 0.00 0.00 0.00 74 1011.6
20260505071826 58 135 0.0 0.0 0.00 0.00 0.00 73 1011.5
20260505071323 58 89 0.0 0.0 0.00 0.00 0.00 73 1011.7
20260505070821 59 139 0.0 0.0 0.00 0.00 0.00 73 1011.6
20260505070318 59 179 0.0 0.0 0.00 0.00 0.00 72 1011.7
20260505065813 59 135 0.0 0.0 0.00 0.00 0.00 72 1011.5
20260505065310 59 150 0.0 0.0 0.00 0.00 0.00 71 1011.7
20260505064807 59 166 0.0 0.0 0.00 0.00 0.00 71 1011.5
20260505064304 59 158 0.0 0.0 0.00 0.00 0.00 71 1011.6
20260505063802 59 311 0.0 0.0 0.00 0.00 0.00 70 1011.7
20260505063258 59 143 0.0 0.0 0.00 0.00 0.00 71 1011.4
20260505062754 59 296 0.0 1.7 0.00 0.00 0.00 70 1011.6
20260505062252 59 286 0.9 1.7 0.00 0.00 0.00 70 1011.5
20260505061749 59 157 0.0 0.0 0.00 0.00 0.00 70 1011.6
20260505061247 59 200 0.0 0.0 0.00 0.00 0.00 70 1011.7
20260505060744 59 175 0.0 0.0 0.00 0.00 0.00 70 1011.8
20260505060241 59 164 0.0 0.0 0.00 0.00 0.00 70 1011.7
20260505055736 59 162 0.0 0.0 0.00 0.00 0.00 69 1011.8
20260505055233 59 139 0.0 0.0 0.00 0.00 0.00 69 1011.7
20260505054730 60 169 0.0 0.0 0.00 0.00 0.00 68 1011.7
20260505054228 60 160 0.0 0.0 0.00 0.00 0.00 68 1011.7
20260505053726 60 162 0.0 0.0 0.00 0.00 0.00 68 1011.7
20260505053222 60 143 0.0 0.0 0.00 0.00 0.00 67 1011.8
20260505052719 60 143 0.0 0.0 0.00 0.00 0.00 66 1011.9
20260505052216 60 160 0.0 0.0 0.00 0.00 0.00 66 1012.0
20260505051713 61 135 0.0 0.0 0.00 0.00 0.00 65 1011.8
20260505051211 61 145 0.0 0.0 0.00 0.00 0.00 65 1012.0
20260505050709 61 157 0.0 0.0 0.00 0.00 0.00 64 1011.9
20260505050207 61 200 0.0 0.0 0.00 0.00 0.00 63 1012.1
20260505041642 62 165 0.0 0.0 0.00 0.00 0.00 56 1012.0
20260505041140 63 139 0.0 0.0 0.00 0.00 0.00 55 1012.0
20260505040636 63 144 0.0 0.0 0.00 0.00 0.00 55 1012.2
20260505040134 63 148 0.0 0.0 0.00 0.00 0.00 54 1012.0
20260505035630 63 155 0.0 0.0 0.00 0.00 0.00 53 1011.9
20260505035126 63 146 0.0 0.0 0.00 0.00 0.00 53 1011.9
20260505034623 64 136 0.0 0.0 0.00 0.00 0.00 54 1012.0
20260505034120 64 142 0.0 0.0 0.00 0.00 0.00 52 1012.0
20260505033617 64 141 0.0 0.0 0.00 0.00 0.00 52 1012.0
20260505033115 64 152 0.0 0.0 0.00 0.00 0.00 51 1012.0
20260505032613 65 166 0.0 0.0 0.00 0.00 0.00 50 1011.9
20260505032109 65 149 0.0 0.0 0.00 0.00 0.00 50 1012.0
20260505031606 65 146 0.0 0.0 0.00 0.00 0.00 49 1011.8
20260505031102 65 144 0.0 0.0 0.00 0.00 0.00 50 1011.8
20260505030600 66 140 0.0 0.0 0.00 0.00 0.00 49 1011.9
20260505030055 66 159 0.0 0.0 0.00 0.00 0.00 48 1011.9
20260505025551 66 222 0.0 0.0 0.00 0.00 0.00 48 1011.9
20260505025051 66 163 0.0 0.0 0.00 0.00 0.00 48 1012.0
20260505024547 66 151 0.0 0.0 0.00 0.00 0.00 47 1011.9
20260505024044 66 141 0.0 0.0 0.00 0.00 0.00 47 1011.8
20260505023541 67 144 0.0 0.0 0.00 0.00 0.00 46 1011.9
20260505023039 67 147 0.0 0.0 0.00 0.00 0.00 45 1012.1
20260505022536 67 155 0.0 0.0 0.00 0.00 0.00 44 1011.9
20260505022033 68 135 0.0 0.0 0.00 0.00 0.00 44 1011.8
20260505021530 68 155 0.0 0.0 0.00 0.00 0.00 43 1011.8
20260505021027 68 148 0.0 0.0 0.00 0.00 0.00 43 1011.7
20260505020526 69 158 0.0 0.0 0.00 0.00 0.00 42 1011.5
20260505020024 69 314 0.9 3.5 0.00 0.00 0.00 41 1011.5
20260505015521 69 280 1.7 2.6 0.00 0.00 0.00 41 1011.5
20260505015018 69 225 0.0 0.0 0.00 0.00 0.00 40 1011.5
20260505014514 70 252 1.7 3.5 0.00 0.00 0.00 40 1011.4
20260505014012 70 196 0.0 0.0 0.00 0.00 0.00 39 1011.2
20260505013509 70 333 0.0 0.0 0.00 0.00 0.00 39 1011.1
20260505013006 70 166 0.0 0.0 0.00 0.00 0.00 39 1011.4
20260505012504 70 179 0.0 0.0 0.00 0.00 0.00 38 1011.2
20260505012001 70 150 0.0 0.0 0.00 0.00 0.00 38 1011.1
20260505011456 70 174 0.0 0.0 0.00 0.00 0.00 38 1011.0
20260505010954 70 158 0.0 0.0 0.00 0.00 0.00 39 1011.1
20260505010449 70 153 0.0 0.0 0.00 0.00 0.00 37 1011.0
20260505005945 70 151 0.0 0.0 0.00 0.00 0.00 39 1010.8
20260505005442 70 157 0.0 0.0 0.00 0.00 0.00 39 1010.9
20260505004940 70 153 0.0 0.0 0.00 0.00 0.00 38 1010.7
20260505004436 71 176 0.0 0.0 0.00 0.00 0.00 38 1010.7
20260505003933 71 330 0.0 0.0 0.00 0.00 0.00 36 1010.6
20260505003431 71 330 0.0 0.0 0.00 0.00 0.00 36 1010.5
20260505002927 71 277 0.0 0.9 0.00 0.00 0.00 36 1010.7
20260505002423 72 158 0.0 0.0 0.00 0.00 0.00 37 1010.5